Location: Asheville, NC
(35.6000°N, 82.5500°W)
Time: 13:01:50
(UTC-05:00)

STARS - Pass Details

Date: 06 January 2018
Orbit: 625 x 641 km, 98.3° (Epoch: 17 January)

Event Time Altitude Azimuth Distance (km) Brightness Sun altitude
Rises 04:39:31 0° 125° (SE) 2,900 ? -36.0°
Reaches altitude 10° 04:42:28 10° 103° (ESE) 1,996 ? -35.4°
Maximum altitude 04:45:01 16° 66° (ENE) 1,658 ? -34.9°
Enters shadow 04:45:59 15° 51° (NE) 1,712 ? -34.7°
